SES-18

Last updated on Thu Jul 03 2025 00:02:49 GMT+0000 (Coordinated Universal Time)

1 55970U 23038A 25183.54620463 -.00000093 00000+0 00000+0 0 9992 2 55970 0.0486 267.2032 0000275 273.4961 193.6514 1.00272127 8597
UTC large
Height (km)
Speed (km/s)
/
Latitude / Longitude
Inclination (degrees)
Orbital Period (minutes)
Azimuth
Elevation
Range (km)
Doppler Factor

Next 0 passes for location: London (51.5072 / 0.1276)

Sorry there are no passes over London.